NUSAT-6 (HYPATIA)

Last updated on Sat Sep 14 2024 00:02:26 GMT+0000 (Coordinated Universal Time)

1 46272U 20061A 24256.97279442 .04874382 23712-5 11767-2 0 9993 2 46272 97.2064 335.3865 0011785 263.7973 96.1979 16.29288455225339
UTC large
Height (km)
Speed (km/s)
/
Latitude / Longitude
Inclination (degrees)
Orbital Period (minutes)
Azimuth
Elevation
Range (km)
Doppler Factor

Next 0 passes for location: London (51.5072 / 0.1276)

Sorry there are no passes over London.